User: anonymous   Login
Location: Dappach
(48.9767°N, 9.6998°E)
Time: 20:41:10
(UTC+00:00)
Language:

IDEFIX/ARIANE 42P - Orbit

View from above orbital plane
View from above orbital plane
View from above satellite
View from above satellite

Ground track
Ground track

The orbit data is extracted from the following two-line orbital elements,

1 27422U 02021B   24206.37068591  .00000771  00000-0  31434-3 0  9998
2 27422  98.5275 143.3145 0012819 130.5105 229.7197 14.30181444159183
Epoch (UTC): 24 July 2024 08:53:47
Eccentricity: 0.0012819
inclination: 98.5275°
perigee height: 782 km
apogee height: 800 km
right ascension of ascending node: 143.3145°
argument of perigee: 130.5105°
revolutions per day: 14.30181444
mean anomaly at epoch: 229.7197°
orbit number at epoch: 15918

The dashed part of the orbit path shows where the satellite is in the earth's shadow,  

DLR